Weather History for KDUJ - August, 2012

Change the Weather History Date:

Saturday, August 4, 2012

  Actual Average Record
Temperature  
Mean Temperature 78 °F 68 °F  
Max Temperature 86 °F 78 °F 91 °F (2005)
Min Temperature 69 °F 58 °F 46 °F (1966)
Degree Days  
Heating Degree Days 0 1  
Month to date heating degree days 0 4  
Since 1 June heating degree days 81 113  
Since 1 July heating degree days 2 28  
Cooling Degree Days 13 4  
Month to date cooling degree days 32 16  
Year to date cooling degree days 417 241  
Since 1 June cooling degree days 346 218  
Growing Degree Days 26 (Base 50)    
Moisture  
Dew Point 67 °F    
Average Humidity 73    
Maximum Humidity 90    
Minimum Humidity 55    
Precipitation  
Precipitation 0.00 in 0.13 in 1.00 in (1997)
Month to date precipitation 0.00 0.53  
Sea Level Pressure  
Sea Level Pressure 30.08 in    
Wind  
Wind Speed 7 mph (SE)    
Max Wind Speed 13 mph    
Max Gust Speed 21 mph    
Visibility 9 miles    
Events Thunderstorm    
T = Trace of Precipitation, MM = Missing Value Source: NWS Daily Summary

Daily Weather History Graph

Daily Weather History Graph

Search for Another Location

Airport or City:

Trip Planner

Search our weather history database for the weather conditions in past years. The results will help you decide how hot, cold, wet, or windy it might be!

Date:

Astronomy

Aug. 04, 2012 Rise Set
Actual Time 6:14 AM EDT 8:28 PM EDT
Civil Twilight 5:43 AM EDT 8:58 PM EDT
Nautical Twilight 5:06 AM EDT 9:36 PM EDT
Astronomical Twilight 4:24 AM EDT 10:17 PM EDT
Moon 9:33 PM EDT 9:02 AM EDT
Length of Visible Light 15h 14m
Length of Day
14h 13m
Waning Gibbous, 92% of the Moon is Illuminated
Aug 4
Waning Gibbous
Aug 9
Last Quarter
Aug 17
New
Aug 24
First Quarter
Aug 31
Full

Hourly Weather History & Observations

Time (EDT) Temp. Heat Index Dew Point Humidity Pressure Visibility Wind Dir Wind Speed Gust Speed Precip Events Conditions
12:56 AM 70.0 °F - 64.9 °F 84% 30.07 in 10.0 mi East 3.5 mph - N/A   Clear
1:56 AM 71.6 °F - 66.2 °F 83% 30.11 in 10.0 mi ESE 6.9 mph - N/A   Clear
2:56 AM 71.1 °F - 66.0 °F 84% 30.06 in 9.0 mi ESE 6.9 mph - N/A   Clear
3:56 AM 71.1 °F - 66.0 °F 84% 30.07 in 9.0 mi ESE 6.9 mph - N/A   Clear
4:56 AM 69.1 °F - 66.0 °F 90% 30.08 in 7.0 mi ESE 5.8 mph - N/A   Clear
5:56 AM 69.1 °F - 66.0 °F 90% 30.09 in 6.0 mi ESE 5.8 mph - N/A   Clear
6:56 AM 70.0 °F - 66.9 °F 90% 30.10 in 5.0 mi SE 5.8 mph - N/A   Clear
7:56 AM 71.1 °F - 66.9 °F 87% 30.11 in 5.0 mi SE 5.8 mph - N/A   Clear
8:56 AM 73.9 °F - 68.0 °F 82% 30.11 in 8.0 mi SE 5.8 mph - N/A   Clear
9:56 AM 77.0 °F - 69.1 °F 76% 30.11 in 10.0 mi ESE 9.2 mph - N/A   Clear
10:56 AM 80.1 °F 82.9 °F 69.1 °F 69% 30.11 in 10.0 mi SE 8.1 mph - N/A   Clear
11:56 AM 82.0 °F 85.5 °F 69.1 °F 65% 30.11 in 10.0 mi South 9.2 mph - N/A   Scattered Clouds
12:56 PM 82.9 °F 85.8 °F 68.0 °F 60% 30.10 in 10.0 mi SE 9.2 mph - N/A   Mostly Cloudy
1:56 PM 82.9 °F 87.0 °F 70.0 °F 65% 30.09 in 10.0 mi South 5.8 mph - N/A   Partly Cloudy
2:56 PM 84.0 °F 87.0 °F 68.0 °F 58% 30.07 in 10.0 mi South 8.1 mph - N/A   Partly Cloudy
3:56 PM 84.9 °F 87.6 °F 66.9 °F 55% 30.05 in 10.0 mi South 8.1 mph - N/A   Partly Cloudy
4:42 PM 82.4 °F 85.4 °F 68.0 °F 62% 30.10 in 10.0 mi South 8.1 mph - N/A Thunderstorm Mostly Cloudy
4:56 PM 81.0 °F 83.0 °F 66.0 °F 60% 30.06 in 10.0 mi Variable 6.9 mph 16.1 mph N/A Thunderstorm Scattered Clouds
5:21 PM 80.6 °F 82.3 °F 64.4 °F 58% 30.09 in 10.0 mi SSE 5.8 mph - N/A   Clear
5:56 PM 82.0 °F 84.9 °F 68.0 °F 62% 30.04 in 10.0 mi SSE 5.8 mph - N/A   Clear
6:56 PM 82.0 °F 85.5 °F 69.1 °F 65% 30.04 in 10.0 mi SE 8.1 mph - N/A   Clear
7:56 PM 80.1 °F 81.9 °F 64.9 °F 60% 30.06 in 10.0 mi South 8.1 mph - N/A   Mostly Cloudy
8:56 PM 77.0 °F - 64.9 °F 66% 30.06 in 10.0 mi SE 6.9 mph - N/A   Clear
9:56 PM 75.9 °F - 66.9 °F 74% 30.07 in 10.0 mi SSE 6.9 mph - N/A   Scattered Clouds
10:56 PM 75.9 °F - 66.9 °F 74% 30.06 in 10.0 mi South 8.1 mph - N/A   Clear
11:56 PM 75.9 °F - 66.0 °F 71% 30.07 in 10.0 mi South 6.9 mph - N/A   Partly Cloudy